This is the latest recevied weather packets stored in our database for station/object KB4MOX. If no packets are shown the sender has not sent any weather packets the latest 1 day(s).
| Time | Temp. | Humidity | Pressure | Rain* | Wind** | Luminosity | Snow |
|---|---|---|---|---|---|---|---|
| 1778085618 | 26.11° C | 55% | 1016.7 hPa | 0 mm | - | 298 W/m² | - |
| 1778085314 | 26.11° C | 59% | 1016.7 hPa | 0 mm | - | 411 W/m² | - |
| 1778082885 | 24.44° C | 68% | 1017.2 hPa | 0 mm | - | 425 W/m² | - |
| 1778081474 | 23.33° C | 70% | 1016.9 hPa | 0 mm | - | 177 W/m² | - |
| 1778081171 | 23.33° C | 70% | 1016.9 hPa | 0 mm | - | 200 W/m² | - |
| 1778079960 | 22.78° C | 72% | 1016.8 hPa | 0 mm | - | 271 W/m² | - |
| 1778079657 | 22.22° C | 75% | 1016.7 hPa | 0 mm | - | 269 W/m² | - |
| 1778078445 | 21.67° C | 76% | 1016.4 hPa | 0 mm | - | 249 W/m² | - |
| 1778077841 | 21.11° C | 77% | 1016.3 hPa | 0 mm | - | 256 W/m² | - |
| 1778077538 | 21.11° C | 77% | 1016.4 hPa | 0 mm | - | 233 W/m² | - |
| 1778076632 | 20.56° C | 78% | 1016.2 hPa | 0 mm | - | 175 W/m² | - |
| 1778075723 | 20° C | 80% | 1016.3 hPa | 0 mm | - | 181 W/m² | - |
| 1778075419 | 19.44° C | 80% | 1016.2 hPa | 0 mm | - | 163 W/m² | - |
| 1778074812 | 19.44° C | 81% | 1016.3 hPa | 0 mm | - | 134 W/m² | - |
| 1778074206 | 18.89° C | 83% | 1016.2 hPa | 0 mm | - | 100 W/m² | - |
| 1778072086 | 18.33° C | 82% | 1015.9 hPa | 0 mm | - | 171 W/m² | - |
| 1778071784 | 18.33° C | 83% | 1015.8 hPa | 0 mm | - | 125 W/m² | - |
| 1778070877 | 17.78° C | 84% | 1015.7 hPa | 0 mm | - | 46 W/m² | - |
| 1778070574 | 17.78° C | 83% | 1015.6 hPa | 0 mm | - | 49 W/m² | - |
| 1778070271 | 17.78° C | 83% | 1015.7 hPa | 0 mm | - | 72 W/m² | - |
| 1778069666 | 17.22° C | 84% | 1015.6 hPa | 0 mm | - | 66 W/m² | - |
| 1778069363 | 17.22° C | 84% | 1015.6 hPa | 0 mm | - | 63 W/m² | - |
| 1778068154 | 16.67° C | 86% | 1015.5 hPa | 0 mm | - | 44 W/m² | - |
| 1778067851 | 16.67° C | 86% | 1015.5 hPa | 0 mm | - | 31 W/m² | - |
| 1778066943 | 16.11° C | 87% | 1015.2 hPa | 0 mm | - | 27 W/m² | - |
* Rain latest hour (hover to see other rain measurements)
** Current wind speed in m/s (hover to see current wind gust speed)